Regional Weather Roundup
Issued by NWS State College, PA

Home | Current Version | Previous Version | Text Only | Print | Product List | Glossary On
Versions: 1 2 3 4 5 6 7 8 9 10 11 12 13 14 15 16 17 18 19 20 21 22 23 24 25 26 27 28 29 30 31 32 33 34 35 36 37 38 39 40 41 42 43 44 45 46 47 48 49 50
321
ASUS41 KCTP 242003
RWRCTP

REGIONAL WEATHER ROUNDUP
NATIONAL WEATHER SERVICE STATE COLLEGE PA
400 PM EDT THU MAY 24 2018

Note: "fair" indicates few or no clouds below 12,000 feet with no
significant weather and/or obstructions to visibility.

* = STATION THAT DOES NOT REPORT PRECIPITATION /E.G. RAIN...SNOW...ETC/
    THUNDER OR FOG.

PAZ002>004-007>009-013>016-020>023-029>032-242100-
WESTERN PENNSYLVANIA

CITY           SKY/WX    TMP DP  RH WIND       PRES   REMARKS
ERIE           FAIR      79  48  33 NW7       30.18F
MEADVILLE      FAIR      78  49  35 VRB3      30.19F
FRANKLIN*      FAIR      79  45  29 SE8       30.20F
NEW CASTLE     FAIR      80  50  34 SW6       30.19F
BEAVER COUNTY  SUNNY     81  46  30 CALM      30.19F
BUTLER*        FAIR      80  48  32 S6        30.19F
PITTSBURGH INT FAIR      82  40  22 N6        30.18F
PITTSBURGH     FAIR      80  47  31 VRB3      30.17F
INDIANA*       SUNNY     81  48  32 VRB6      30.22F
LATROBE        SUNNY     79  50  36 NW6       30.18F
WASHINGTON CO* FAIR      78  51  38 CALM      30.20
$$

PAZ004>006-010>012-017>019-024>028-033>037-041-042-045-046-049>053-242100-
CENTRAL PENNSYLVANIA

CITY           SKY/WX    TMP DP  RH WIND       PRES   REMARKS
BRADFORD       FAIR      78  39  24 NW10      30.19F
DUBOIS         FAIR      80  47  31 E5        30.18F
CLEARFIELD     FAIR      81  46  29 VRB6      30.17F
JOHNSTOWN      FAIR      78  46  32 VRB3      30.21F
ALTOONA        FAIR      82  47  29 S6        30.19F
STATE COLLEGE  SUNNY     81  50  34 E7        30.15F
WILLIAMSPORT   FAIR      84  44  24 S3        30.10F
SELINSGROVE    FAIR      82  51  34 NW3       30.13F
FT INDIANTOWN  SUNNY     83  45  26 CALM      30.13F
CAPITAL CITY   FAIR      85  43  22 N9        30.13F
HARRISBURG     FAIR      81  50  33 SW3       30.13F
YORK           FAIR      83  49  30 VRB6      30.15F
$$

PAZ038>040-043-044-047-048-054-055-060>062-067>071-242100-
EASTERN PENNSYLVANIA

CITY           SKY/WX    TMP DP  RH WIND       PRES   REMARKS
SCRANTON       FAIR      81  46  29 VRB7      30.13F
MOUNT POCONO   FAIR      76  42  29 N6G16     30.16F
ALLENTOWN      FAIR      84  44  24 MISG      30.11F
QUAKERTOWN*    CLEAR     84  48  28 CALM      30.12F
READING        FAIR      84  50  30 SW8       30.11F
LANCASTER      FAIR      83  53  35 CALM      30.13F
COATESVILLE    FAIR      79  48  34 N3        30.16F
POTTSTOWN      FAIR      81  49  32 S7        30.14F
BLUE BELL      FAIR      79  48  34 CALM      30.13F
DOYLESTOWN     FAIR      83  48  29 VRB3      30.11F
WILLOW GROVE   NOT AVBL
NORTH PHILA    FAIR      85  46  25 VRB3      30.13F
PHILADELPHIA   FAIR      82  42  24 S8        30.12F
$$




USA.gov is the U.S. government's official web portal to all federal, state and local government web resources and services.